Location: ??
(35.5653°N, 139.6194°E)
Time: 02:12:42
(UTC+00:00)

Helios 1A Rocket - Pass Details

Date: 20 November 2019
Orbit: 563 x 588 km, 98.3° (Epoch: 13 December)

Event Time Altitude Azimuth Distance (km) Brightness Sun altitude
Rises 20:00:45 0° 16° (NNE) 2,791 6.5 -16.5°
Reaches altitude 10° 20:02:56 10° 19° (NNE) 1,884 5.6 -16.1°
Maximum altitude 20:06:59 65° 101° (ESE) 628 3.3 -15.3°
Drops below altitude 10° 20:10:58 10° 184° (S) 1,857 5.6 -14.5°
Sets 20:13:06 0° 187° (S) 2,746 6.5 -14.1°
